This demonstration page uses our WeatherBlox Daily Observations layout. Learn more.

Left ArrowRight Arrow

Hourly Observations for April 8, 2020

Temp ( °F °C ) Dew Point ( °F °C ) Humidity (%) Winds ( mph kmh ) Pressure ( in mb ) Visibility ( mi km ) Precip ( " mm )
12:53 am 00:53 Clear 52 11.1 47 8.3 83 83 NNW 6 9 29.97 1015 10 16 0.00 0.00
1:53 am 01:53 Clear 52 11.1 47 8.3 83 83 N 5 7 29.95 1014 10 16 0.00 0.00
2:53 am 02:53 Clear 49 9.4 46 7.8 90 90 Calm 29.93 1014 10 16 0.00 0.00
3:53 am 03:53 Clear 50 10 45 7.2 83 83 Calm 29.92 1013 10 16 0.00 0.00
4:53 am 04:53 Clear 50 10 43 6.1 77 77 N 5 7 29.92 1013 10 16 0.00 0.00
5:53 am 05:53 Clear 54 12.2 42 5.6 64 64 NNW 5 7 29.92 1013 10 16 0.00 0.00
6:53 am 06:53 Sunny 56 13.3 41 5 57 57 NNW 5 7 29.93 1014 10 16 0.00 0.00
7:53 am 07:53 Sunny 61 16.1 41 5 48 48 N 13 20 29.95 1014 10 16 0.00 0.00
8:53 am 08:53 Sunny 66 18.9 41 5 40 40 N 17 28 29.94 1014 10 16 0.00 0.00
9:53 am 09:53 Sunny 65 18.3 50 10 59 59 SSE 7 11 29.96 1014 10 16 0.00 0.00
10:53 am 10:53 Sunny 68 20 50 10 53 53 SSE 7 11 29.94 1014 10 16 0.00 0.00
11:53 am 11:53 Sunny 74 23.3 41 5 31 31 ENE 7 11 29.91 1013 10 16 0.00 0.00
12:53 pm 12:53 Sunny 78 25.6 43 6.1 29 29 N 16 26 29.88 1012 10 16 0.00 0.00
1:53 pm 13:53 Sunny 81 27.2 43 6.1 26 26 N 16 26 29.86 1011 10 16 0.00 0.00
2:53 pm 14:53 Sunny 83 28.3 44 6.7 25 25 N 17 28 29.83 1010 10 16 0.00 0.00
3:53 pm 15:53 Sunny 84 28.9 41 5 22 22 N 16 26 29.81 1010 10 16 0.00 0.00
4:53 pm 16:53 Sunny 85 29.4 40 4.4 20 20 N 13 20 29.80 1009 10 16 0.00 0.00
5:53 pm 17:53 Mostly Sunny 83 28.3 43 6.1 24 24 NNE 10 17 29.79 1009 10 16 0.00 0.00
6:53 pm 18:53 Sunny 82 27.8 41 5 23 23 N 6 9 29.79 1009 10 16 0.00 0.00
7:53 pm 19:53 Clear 66 18.9 55 12.8 68 68 SSE 13 20 29.81 1010 10 16 0.00 0.00
8:53 pm 20:53 Clear 61 16.1 53 11.7 75 75 S 12 19 29.86 1011 10 16 0.00 0.00
9:53 pm 21:53 Clear 58 14.4 51 10.6 78 78 S 5 7 29.91 1013 10 16 0.00 0.00
10:53 pm 22:53 Clear 57 13.9 50 10 78 78 S 5 7 29.93 1014 10 16 0.00 0.00
11:53 pm 23:53 Clear 55 12.8 49 9.4 80 80 Calm 29.95 1014 10 16 0.00 0.00

Powered by AerisWeather